Year,Month,Day,Hour,Minute,Value (Times are PST for barometer in hPa)
2010,05,03,00,00,1001.69
2010,05,03,00,05,1001.46
2010,05,03,00,06,1001.42
2010,05,03,00,07,1001.41
2010,05,03,00,08,1001.29
2010,05,03,00,09,1001.29
2010,05,03,00,10,1001.35
2010,05,03,00,11,1001.12
2010,05,03,00,12,1001.19
2010,05,03,00,13,1001.15
2010,05,03,00,14,1001.12
2010,05,03,00,15,1001.08
2010,05,03,00,16,1001.11
2010,05,03,00,17,1000.98
2010,05,03,00,18,1000.95
2010,05,03,00,19,1000.95
2010,05,03,00,20,1000.95
2010,05,03,00,21,1000.95
2010,05,03,00,22,1000.85
2010,05,03,00,23,1000.88
2010,05,03,00,24,1000.86
2010,05,03,00,25,1000.95
2010,05,03,00,26,1000.85
2010,05,03,00,27,1000.85
2010,05,03,00,28,1000.88
2010,05,03,00,29,1000.77
2010,05,03,00,30,1000.63
2010,05,03,00,31,1000.52
2010,05,03,00,32,1000.68
2010,05,03,00,33,1000.61
2010,05,03,00,34,1000.58
2010,05,03,00,35,1000.51
2010,05,03,00,36,1000.49
2010,05,03,00,37,1000.67
2010,05,03,00,38,1000.55
2010,05,03,00,39,1000.75
2010,05,03,00,40,1000.44
2010,05,03,00,41,1000.37
2010,05,03,00,42,1000.41
2010,05,03,00,43,1000.34
2010,05,03,00,44,1000.27
2010,05,03,00,45,1000.34
2010,05,03,00,46,1000.34
2010,05,03,00,47,1000.31
2010,05,03,00,48,1000.30
2010,05,03,00,49,1000.20
2010,05,03,00,50,1000.26
2010,05,03,00,51,1000.10
2010,05,03,00,52,1000.00
2010,05,03,00,53,1000.01
2010,05,03,00,54,1000.14
2010,05,03,00,55,1000.16
2010,05,03,00,56,999.97
2010,05,03,00,57,1000.07
2010,05,03,00,58,1000.10
2010,05,03,00,59,1000.03
2010,05,03,01,00,1000.07
2010,05,03,01,01,1000.00
2010,05,03,01,02,999.84
2010,05,03,01,03,999.93
2010,05,03,01,04,1000.00
2010,05,03,01,05,1000.03
2010,05,03,01,06,1000.07
2010,05,03,01,07,1000.00
2010,05,03,01,08,1000.00
2010,05,03,01,09,1000.00
2010,05,03,01,10,999.97
2010,05,03,01,11,999.97
2010,05,03,01,12,999.99
2010,05,03,01,13,999.90
2010,05,03,01,14,999.87
2010,05,03,01,15,999.80
2010,05,03,01,16,999.87
2010,05,03,01,17,999.73
2010,05,03,01,18,999.66
2010,05,03,01,19,999.63
2010,05,03,01,20,999.59
2010,05,03,01,21,999.63
2010,05,03,01,22,999.63
2010,05,03,01,23,999.70
2010,05,03,01,24,999.73
2010,05,03,01,25,999.73
2010,05,03,01,26,999.72
2010,05,03,01,27,999.63
2010,05,03,01,28,999.70
2010,05,03,01,29,999.63
2010,05,03,01,30,999.66
2010,05,03,01,31,999.66
2010,05,03,01,32,999.56
2010,05,03,01,33,999.59
2010,05,03,01,34,999.63
2010,05,03,01,35,999.59
2010,05,03,01,36,999.63
2010,05,03,01,37,999.56
2010,05,03,01,38,999.59
2010,05,03,01,39,999.59
2010,05,03,01,40,999.63
2010,05,03,01,41,999.63
2010,05,03,01,42,999.63
2010,05,03,01,43,999.63
2010,05,03,01,44,999.56
2010,05,03,01,45,999.59
2010,05,03,01,46,999.56
2010,05,03,01,47,999.53
2010,05,03,01,48,999.56
2010,05,03,01,49,999.43
2010,05,03,01,50,999.39
2010,05,03,01,51,999.43
2010,05,03,01,52,999.43
2010,05,03,01,53,999.26
2010,05,03,01,54,999.32
2010,05,03,01,55,999.26
2010,05,03,01,56,999.32
2010,05,03,01,57,999.26
2010,05,03,01,58,999.29
2010,05,03,01,59,999.29
2010,05,03,02,00,999.29
2010,05,03,02,01,999.19
2010,05,03,02,02,999.22
2010,05,03,02,03,999.29
2010,05,03,02,04,999.13
2010,05,03,02,05,999.36
2010,05,03,02,06,999.25
2010,05,03,02,07,999.05
2010,05,03,02,08,999.09
2010,05,03,02,09,998.99
2010,05,03,02,10,999.05
2010,05,03,02,11,999.02
2010,05,03,02,12,999.12
2010,05,03,02,13,999.05
2010,05,03,02,14,999.02
2010,05,03,02,15,998.99
2010,05,03,02,16,999.02
2010,05,03,02,17,998.98
2010,05,03,02,18,998.88
2010,05,03,02,19,998.78
2010,05,03,02,20,998.78
2010,05,03,02,21,998.78
2010,05,03,02,22,998.75
2010,05,03,02,23,998.75
2010,05,03,02,24,998.67
2010,05,03,02,25,998.58
2010,05,03,02,26,998.54
2010,05,03,02,27,998.49
2010,05,03,02,28,998.61
2010,05,03,02,29,998.64
2010,05,03,02,30,998.54
2010,05,03,02,31,998.57
2010,05,03,02,32,998.48
2010,05,03,02,33,998.58
2010,05,03,02,34,998.61
2010,05,03,02,35,998.58
2010,05,03,02,36,998.54
2010,05,03,02,37,998.61
2010,05,03,02,38,998.66
2010,05,03,02,39,998.74
2010,05,03,02,40,998.58
2010,05,03,02,41,998.65
2010,05,03,02,42,998.68
2010,05,03,02,43,998.68
2010,05,03,02,44,998.74
2010,05,03,02,45,998.61
2010,05,03,02,46,998.61
2010,05,03,02,47,998.59
2010,05,03,02,48,998.68
2010,05,03,02,49,998.61
2010,05,03,02,50,998.51
2010,05,03,02,51,998.58
2010,05,03,02,52,998.54
2010,05,03,02,53,998.58
2010,05,03,02,54,998.51
2010,05,03,02,55,998.54
2010,05,03,02,56,998.54
2010,05,03,02,57,998.54
2010,05,03,02,58,998.51
2010,05,03,02,59,998.51
2010,05,03,03,00,998.54
2010,05,03,03,01,998.58
2010,05,03,03,02,998.65
2010,05,03,03,03,998.61
2010,05,03,03,04,998.54
2010,05,03,03,05,998.55
2010,05,03,03,06,998.68
2010,05,03,03,07,998.76
2010,05,03,03,08,998.85
2010,05,03,03,09,998.92
2010,05,03,03,10,998.92
2010,05,03,03,11,998.95
2010,05,03,03,12,998.92
2010,05,03,03,13,998.92
2010,05,03,03,14,998.99
2010,05,03,03,15,998.95
2010,05,03,03,16,999.00
2010,05,03,03,17,999.12
2010,05,03,03,18,999.22
2010,05,03,03,19,998.99
2010,05,03,03,20,998.99
2010,05,03,03,21,999.09
2010,05,03,03,22,999.19
2010,05,03,03,23,999.32
2010,05,03,03,24,999.32
2010,05,03,03,25,999.36
2010,05,03,03,26,999.39
2010,05,03,03,27,999.43
2010,05,03,03,28,999.46
2010,05,03,03,29,999.43
2010,05,03,03,30,999.36
2010,05,03,03,31,999.43
2010,05,03,03,32,999.43
2010,05,03,03,33,999.49
2010,05,03,03,34,999.57
2010,05,03,03,35,999.67
2010,05,03,03,36,999.80
2010,05,03,03,37,999.90
2010,05,03,03,38,999.97
2010,05,03,03,39,999.90
2010,05,03,03,40,999.87
2010,05,03,03,41,999.87
2010,05,03,03,42,999.77
2010,05,03,03,43,999.87
2010,05,03,03,44,999.93
2010,05,03,03,45,1000.11
2010,05,03,03,46,1000.34
2010,05,03,03,47,1000.41
2010,05,03,03,48,1000.31
2010,05,03,03,49,1000.34
2010,05,03,03,50,1000.31
2010,05,03,03,51,1000.44
2010,05,03,03,52,1000.48
2010,05,03,03,53,1000.43
2010,05,03,03,54,1000.81
2010,05,03,03,55,1000.79
2010,05,03,03,56,1000.92
2010,05,03,03,57,1000.88
2010,05,03,03,58,1001.03
2010,05,03,03,59,1001.25
2010,05,03,04,00,1001.29
2010,05,03,04,01,1001.32
2010,05,03,04,02,1001.49
2010,05,03,04,03,1001.36
2010,05,03,04,04,1001.49
2010,05,03,04,05,1001.42
2010,05,03,04,06,1001.49
2010,05,03,04,07,1001.56
2010,05,03,04,08,1001.56
2010,05,03,04,09,1001.59
2010,05,03,04,10,1001.63
2010,05,03,04,11,1001.66
2010,05,03,04,12,1001.66
2010,05,03,04,13,1001.73
2010,05,03,04,14,1001.76
2010,05,03,04,15,1001.63
2010,05,03,04,16,1001.69
2010,05,03,04,17,1001.69
2010,05,03,04,18,1001.76
2010,05,03,04,19,1001.73
2010,05,03,04,20,1001.76
2010,05,03,04,21,1001.80
2010,05,03,04,22,1001.80
2010,05,03,04,23,1001.83
2010,05,03,04,24,1001.86
2010,05,03,04,25,1001.90
2010,05,03,04,26,1001.93
2010,05,03,04,27,1001.99
2010,05,03,04,28,1001.90
2010,05,03,04,29,1002.07
2010,05,03,04,30,1002.00
2010,05,03,04,31,1002.10
2010,05,03,04,32,1002.03
2010,05,03,04,33,1002.07
2010,05,03,04,34,1002.00
2010,05,03,04,35,1001.97
2010,05,03,04,36,1002.00
2010,05,03,04,37,1002.10
2010,05,03,04,38,1002.30
2010,05,03,04,39,1002.24
2010,05,03,04,40,1002.30
2010,05,03,04,41,1002.24
2010,05,03,04,42,1002.17
2010,05,03,04,43,1002.13
2010,05,03,04,44,1002.13
2010,05,03,04,45,1002.37
2010,05,03,04,46,1002.37
2010,05,03,04,47,1002.42
2010,05,03,04,48,1002.57
2010,05,03,04,49,1002.54
2010,05,03,04,50,1002.58
2010,05,03,04,51,1002.68
2010,05,03,04,52,1002.71
2010,05,03,04,53,1002.68
2010,05,03,04,54,1002.74
2010,05,03,04,55,1002.81
2010,05,03,04,56,1002.71
2010,05,03,04,57,1002.78
2010,05,03,04,58,1002.71
2010,05,03,04,59,1002.71
2010,05,03,05,00,1002.71
2010,05,03,05,01,1002.64
2010,05,03,05,02,1002.61
2010,05,03,05,03,1002.54
2010,05,03,05,04,1002.51
2010,05,03,05,05,1002.47
2010,05,03,05,06,1002.54
2010,05,03,05,07,1002.54
2010,05,03,05,08,1002.51
2010,05,03,05,09,1002.47
2010,05,03,05,10,1002.44
2010,05,03,05,11,1002.42
2010,05,03,05,12,1002.54
2010,05,03,05,13,1002.57
2010,05,03,05,14,1002.57
2010,05,03,05,15,1002.64
2010,05,03,05,16,1002.61
2010,05,03,05,17,1002.61
2010,05,03,05,18,1002.64
2010,05,03,05,19,1002.54
2010,05,03,05,20,1002.57
2010,05,03,05,21,1002.61
2010,05,03,05,22,1002.68
2010,05,03,05,23,1002.68
2010,05,03,05,24,1002.71
2010,05,03,05,25,1002.74
2010,05,03,05,26,1002.71
2010,05,03,05,27,1002.68
2010,05,03,05,28,1002.74
2010,05,03,05,29,1002.74
2010,05,03,05,30,1002.78
2010,05,03,05,31,1002.81
2010,05,03,05,32,1002.81
2010,05,03,05,33,1002.81
2010,05,03,05,34,1002.81
2010,05,03,05,35,1002.88
2010,05,03,05,36,1002.82
2010,05,03,05,37,1002.91
2010,05,03,05,38,1002.95
2010,05,03,05,39,1002.95
2010,05,03,05,40,1002.95
2010,05,03,05,41,1002.95
2010,05,03,05,42,1003.06
2010,05,03,05,43,1003.15
2010,05,03,05,44,1003.15
2010,05,03,05,45,1003.22
2010,05,03,05,46,1003.25
2010,05,03,05,47,1003.22
2010,05,03,05,48,1003.15
2010,05,03,05,49,1003.22
2010,05,03,05,50,1003.25
2010,05,03,05,51,1003.29
2010,05,03,05,52,1003.22
2010,05,03,05,53,1003.29
2010,05,03,05,54,1003.29
2010,05,03,05,55,1003.29
2010,05,03,05,56,1003.32
2010,05,03,05,57,1003.29
2010,05,03,05,58,1003.29
2010,05,03,05,59,1003.32
2010,05,03,06,00,1003.32
2010,05,03,06,01,1003.29
2010,05,03,06,02,1003.32
2010,05,03,06,03,1003.35
2010,05,03,06,04,1003.35
2010,05,03,06,05,1003.39
2010,05,03,06,06,1003.32
2010,05,03,06,07,1003.35
2010,05,03,06,08,1003.35
2010,05,03,06,09,1003.42
2010,05,03,06,10,1003.42
2010,05,03,06,11,1003.49
2010,05,03,06,12,1003.49
2010,05,03,06,13,1003.46
2010,05,03,06,14,1003.46
2010,05,03,06,15,1003.56
2010,05,03,06,16,1003.53
2010,05,03,06,17,1003.62
2010,05,03,06,18,1003.59
2010,05,03,06,19,1003.62
2010,05,03,06,20,1003.69
2010,05,03,06,21,1003.73
2010,05,03,06,22,1003.69
2010,05,03,06,23,1003.69
2010,05,03,06,24,1003.69
2010,05,03,06,25,1003.76
2010,05,03,06,26,1003.76
2010,05,03,06,27,1003.83
2010,05,03,06,28,1003.83
2010,05,03,06,29,1003.86
2010,05,03,06,30,1003.79
2010,05,03,06,31,1003.82
2010,05,03,06,32,1003.73
2010,05,03,06,33,1003.83
2010,05,03,06,34,1003.83
2010,05,03,06,35,1003.96
2010,05,03,06,36,1003.96
2010,05,03,06,37,1004.06
2010,05,03,06,38,1004.06
2010,05,03,06,39,1004.13
2010,05,03,06,40,1004.03
2010,05,03,06,41,1004.10
2010,05,03,06,42,1004.17
2010,05,03,06,43,1004.20
2010,05,03,06,44,1004.23
2010,05,03,06,45,1004.23
2010,05,03,06,46,1004.23
2010,05,03,06,47,1004.27
2010,05,03,06,48,1004.30
2010,05,03,06,49,1004.34
2010,05,03,06,50,1004.34
2010,05,03,06,51,1004.44
2010,05,03,06,52,1004.40
2010,05,03,06,53,1004.47
2010,05,03,06,54,1004.54
2010,05,03,06,55,1004.54
2010,05,03,06,56,1004.50
2010,05,03,06,57,1004.57
2010,05,03,06,58,1004.64
2010,05,03,06,59,1004.57
2010,05,03,07,00,1004.64
2010,05,03,07,01,1004.67
2010,05,03,07,02,1004.61
2010,05,03,07,03,1004.67
2010,05,03,07,04,1004.67
2010,05,03,07,05,1004.84
2010,05,03,07,06,1004.84
2010,05,03,07,07,1004.88
2010,05,03,07,08,1004.81
2010,05,03,07,09,1004.88
2010,05,03,07,10,1004.82
2010,05,03,07,11,1004.91
2010,05,03,07,12,1004.91
2010,05,03,07,13,1004.95
2010,05,03,07,14,1004.98
2010,05,03,07,15,1004.98
2010,05,03,07,16,1005.01
2010,05,03,07,17,1005.08
2010,05,03,07,18,1005.08
2010,05,03,07,19,1005.08
2010,05,03,07,20,1005.11
2010,05,03,07,21,1005.15
2010,05,03,07,22,1005.15
2010,05,03,07,23,1005.15
2010,05,03,07,24,1005.18
2010,05,03,07,25,1005.22
2010,05,03,07,26,1005.18
2010,05,03,07,27,1005.15
2010,05,03,07,28,1005.15
2010,05,03,07,29,1005.11
2010,05,03,07,30,1005.15
2010,05,03,07,31,1005.25
2010,05,03,07,32,1005.35
2010,05,03,07,33,1005.25
2010,05,03,07,34,1005.28
2010,05,03,07,35,1005.25
2010,05,03,07,36,1005.28
2010,05,03,07,37,1005.32
2010,05,03,07,38,1005.39
2010,05,03,07,39,1005.39
2010,05,03,07,40,1005.39
2010,05,03,07,41,1005.39
2010,05,03,07,42,1005.45
2010,05,03,07,43,1005.42
2010,05,03,07,44,1005.45
2010,05,03,07,45,1005.52
2010,05,03,07,46,1005.49
2010,05,03,07,47,1005.49
2010,05,03,07,48,1005.52
2010,05,03,07,49,1005.52
2010,05,03,07,50,1005.49
2010,05,03,07,51,1005.49
2010,05,03,07,52,1005.52
2010,05,03,07,53,1005.59
2010,05,03,07,54,1005.60
2010,05,03,07,55,1005.72
2010,05,03,07,56,1005.63
2010,05,03,07,57,1005.72
2010,05,03,07,58,1005.72
2010,05,03,07,59,1005.79
2010,05,03,08,00,1005.83
2010,05,03,08,01,1005.83
2010,05,03,08,02,1005.79
2010,05,03,08,03,1005.86
2010,05,03,08,04,1005.86
2010,05,03,08,05,1005.89
2010,05,03,08,06,1005.96
2010,05,03,08,07,1005.96
2010,05,03,08,08,1005.99
2010,05,03,08,09,1005.96
2010,05,03,08,10,1005.99
2010,05,03,08,11,1005.99
2010,05,03,08,12,1005.99
2010,05,03,08,13,1006.06
2010,05,03,08,14,1006.03
2010,05,03,08,15,1006.13
2010,05,03,08,16,1006.23
2010,05,03,08,17,1006.22
2010,05,03,08,18,1006.13
2010,05,03,08,19,1006.27
2010,05,03,08,20,1006.27
2010,05,03,08,21,1006.30
2010,05,03,08,22,1006.30
2010,05,03,08,23,1006.33
2010,05,03,08,24,1006.33
2010,05,03,08,25,1006.40
2010,05,03,08,26,1006.44
2010,05,03,08,27,1006.47
2010,05,03,08,28,1006.47
2010,05,03,08,29,1006.54
2010,05,03,08,30,1006.50
2010,05,03,08,31,1006.54
2010,05,03,08,32,1006.57
2010,05,03,08,33,1006.57
2010,05,03,08,34,1006.60
2010,05,03,08,35,1006.64
2010,05,03,08,36,1006.64
2010,05,03,08,37,1006.60
2010,05,03,08,38,1006.67
2010,05,03,08,39,1006.67
2010,05,03,08,40,1006.71
2010,05,03,08,41,1006.67
2010,05,03,08,42,1006.67
2010,05,03,08,43,1006.71
2010,05,03,08,44,1006.71
2010,05,03,08,45,1006.71
2010,05,03,08,46,1006.77
2010,05,03,08,47,1006.71
2010,05,03,08,48,1006.71
2010,05,03,08,49,1006.77
2010,05,03,08,50,1006.84
2010,05,03,08,51,1006.84
2010,05,03,08,52,1006.84
2010,05,03,08,53,1006.81
2010,05,03,08,54,1006.87
2010,05,03,08,55,1006.77
2010,05,03,08,56,1006.81
2010,05,03,08,57,1006.81
2010,05,03,08,58,1006.84
2010,05,03,08,59,1006.88
2010,05,03,09,00,1006.81
2010,05,03,09,01,1006.94
2010,05,03,09,02,1006.88
2010,05,03,09,03,1006.98
2010,05,03,09,04,1007.04
2010,05,03,09,05,1007.04
2010,05,03,09,06,1007.11
2010,05,03,09,07,1007.15
2010,05,03,09,08,1007.18
2010,05,03,09,09,1007.21
2010,05,03,09,10,1007.21
2010,05,03,09,11,1007.28
2010,05,03,09,12,1007.32
2010,05,03,09,13,1007.25
2010,05,03,09,14,1007.35
2010,05,03,09,15,1007.42
2010,05,03,09,16,1007.35
2010,05,03,09,17,1007.42
2010,05,03,09,18,1007.45
2010,05,03,09,19,1007.35
2010,05,03,09,20,1007.42
2010,05,03,09,21,1007.45
2010,05,03,09,22,1007.48
2010,05,03,09,23,1007.46
2010,05,03,09,24,1007.55
2010,05,03,09,25,1007.65
2010,05,03,09,26,1007.60
2010,05,03,09,27,1007.69
2010,05,03,09,28,1007.69
2010,05,03,09,29,1007.63
2010,05,03,09,30,1007.72
2010,05,03,09,31,1007.69
2010,05,03,09,32,1007.72
2010,05,03,09,33,1007.76
2010,05,03,09,34,1007.76
2010,05,03,09,35,1007.82
2010,05,03,09,36,1007.82
2010,05,03,09,37,1007.82
2010,05,03,09,38,1007.82
2010,05,03,09,39,1007.82
2010,05,03,09,40,1007.89
2010,05,03,09,41,1007.89
2010,05,03,09,42,1007.93
2010,05,03,09,43,1007.89
2010,05,03,09,44,1007.96
2010,05,03,09,45,1007.93
2010,05,03,09,46,1007.99
2010,05,03,09,47,1007.96
2010,05,03,09,48,1007.96
2010,05,03,09,49,1007.96
2010,05,03,09,50,1007.93
2010,05,03,09,51,1007.99
2010,05,03,09,52,1007.99
2010,05,03,09,53,1008.03
2010,05,03,09,54,1008.13
2010,05,03,09,55,1008.03
2010,05,03,09,56,1008.03
2010,05,03,09,57,1008.13
2010,05,03,09,58,1008.16
2010,05,03,09,59,1008.13
2010,05,03,10,00,1008.13
2010,05,03,10,01,1008.13
2010,05,03,10,02,1008.09
2010,05,03,10,03,1008.09
2010,05,03,10,04,1008.23
2010,05,03,10,05,1008.13
2010,05,03,10,06,1008.16
2010,05,03,10,07,1008.26
2010,05,03,10,08,1008.26
2010,05,03,10,09,1008.30
2010,05,03,10,10,1008.30
2010,05,03,10,11,1008.26
2010,05,03,10,12,1008.37
2010,05,03,10,13,1008.50
2010,05,03,10,14,1008.50
2010,05,03,10,15,1008.53
2010,05,03,10,16,1008.53
2010,05,03,10,17,1008.48
2010,05,03,10,18,1008.60
2010,05,03,10,19,1008.64
2010,05,03,10,20,1008.64
2010,05,03,10,21,1008.64
2010,05,03,10,22,1008.64
2010,05,03,10,23,1008.67
2010,05,03,10,24,1008.67
2010,05,03,10,25,1008.60
2010,05,03,10,26,1008.70
2010,05,03,10,27,1008.64
2010,05,03,10,28,1008.67
2010,05,03,10,29,1008.67
2010,05,03,10,30,1008.70
2010,05,03,10,31,1008.70
2010,05,03,10,32,1008.77
2010,05,03,10,33,1008.74
2010,05,03,10,34,1008.87
2010,05,03,10,35,1008.78
2010,05,03,10,36,1008.84
2010,05,03,10,37,1008.84
2010,05,03,10,38,1008.87
2010,05,03,10,39,1008.94
2010,05,03,10,40,1008.94
2010,05,03,10,41,1008.94
2010,05,03,10,42,1008.94
2010,05,03,10,43,1008.87
2010,05,03,10,44,1008.91
2010,05,03,10,45,1008.94
2010,05,03,10,46,1008.97
2010,05,03,10,47,1009.01
2010,05,03,10,48,1009.01
2010,05,03,10,49,1009.10
2010,05,03,10,50,1009.14
2010,05,03,10,51,1009.14
2010,05,03,10,52,1009.11
2010,05,03,10,53,1009.18
2010,05,03,10,54,1009.25
2010,05,03,10,55,1009.28
2010,05,03,10,56,1009.31
2010,05,03,10,57,1009.38
2010,05,03,10,58,1009.38
2010,05,03,10,59,1009.42
2010,05,03,11,00,1009.45
2010,05,03,11,01,1009.42
2010,05,03,11,02,1009.52
2010,05,03,11,03,1009.55
2010,05,03,11,04,1009.55
2010,05,03,11,05,1009.55
2010,05,03,11,06,1009.65
2010,05,03,11,07,1009.58
2010,05,03,11,08,1009.52
2010,05,03,11,09,1009.52
2010,05,03,11,10,1009.55
2010,05,03,11,11,1009.55
2010,05,03,11,12,1009.58
2010,05,03,11,13,1009.58
2010,05,03,11,14,1009.62
2010,05,03,11,15,1009.62
2010,05,03,11,16,1009.72
2010,05,03,11,17,1009.69
2010,05,03,11,18,1009.72
2010,05,03,11,19,1009.72
2010,05,03,11,20,1009.86
2010,05,03,11,21,1009.82
2010,05,03,11,22,1009.82
2010,05,03,11,23,1009.79
2010,05,03,11,24,1009.86
2010,05,03,11,25,1009.89
2010,05,03,11,26,1009.89
2010,05,03,11,27,1009.89
2010,05,03,11,28,1009.99
2010,05,03,11,29,1009.90
2010,05,03,11,30,1009.96
2010,05,03,11,31,1010.06
2010,05,03,11,32,1009.96
2010,05,03,11,33,1010.06
2010,05,03,11,34,1010.09
2010,05,03,11,35,1010.09
2010,05,03,11,36,1010.16
2010,05,03,11,37,1010.16
2010,05,03,11,38,1010.19
2010,05,03,11,39,1010.19
2010,05,03,11,40,1010.26
2010,05,03,11,41,1010.23
2010,05,03,11,42,1010.23
2010,05,03,11,43,1010.30
2010,05,03,11,44,1010.26
2010,05,03,11,45,1010.33
2010,05,03,11,46,1010.26
2010,05,03,11,47,1010.26
2010,05,03,11,48,1010.40
2010,05,03,11,49,1010.36
2010,05,03,11,50,1010.36
2010,05,03,11,51,1010.36
2010,05,03,11,52,1010.43
2010,05,03,11,53,1010.43
2010,05,03,11,54,1010.43
2010,05,03,11,55,1010.46
2010,05,03,11,56,1010.53
2010,05,03,11,57,1010.57
2010,05,03,11,58,1010.60
2010,05,03,11,59,1010.57
2010,05,03,12,00,1010.60
2010,05,03,12,01,1010.67
2010,05,03,12,02,1010.60
2010,05,03,12,03,1010.63
2010,05,03,12,04,1010.63
2010,05,03,12,05,1010.70
2010,05,03,12,06,1010.77
2010,05,03,12,07,1010.77
2010,05,03,12,08,1010.84
2010,05,03,12,09,1010.80
2010,05,03,12,10,1010.84
2010,05,03,12,11,1010.77
2010,05,03,12,12,1010.84
2010,05,03,12,13,1010.84
2010,05,03,12,14,1010.87
2010,05,03,12,15,1010.87
2010,05,03,12,16,1010.87
2010,05,03,12,17,1010.87
2010,05,03,12,18,1010.91
2010,05,03,12,19,1010.94
2010,05,03,12,20,1010.94
2010,05,03,12,21,1011.01
2010,05,03,12,22,1010.94
2010,05,03,12,23,1010.94
2010,05,03,12,24,1010.94
2010,05,03,12,25,1011.01
2010,05,03,12,26,1011.01
2010,05,03,12,27,1011.01
2010,05,03,12,28,1010.97
2010,05,03,12,29,1011.07
2010,05,03,12,30,1011.04
2010,05,03,12,31,1010.94
2010,05,03,12,32,1011.01
2010,05,03,12,33,1011.04
2010,05,03,12,34,1011.07
2010,05,03,12,35,1011.14
2010,05,03,12,36,1011.14
2010,05,03,12,37,1011.11
2010,05,03,12,38,1011.07
2010,05,03,12,39,1011.14
2010,05,03,12,40,1010.97
2010,05,03,12,41,1011.07
2010,05,03,12,42,1011.14
2010,05,03,12,43,1011.14
2010,05,03,12,44,1011.11
2010,05,03,12,45,1011.11
2010,05,03,12,46,1011.21
2010,05,03,12,47,1011.28
2010,05,03,12,48,1011.11
2010,05,03,12,49,1011.14
2010,05,03,12,50,1011.21
2010,05,03,12,51,1011.34
2010,05,03,12,52,1011.24
2010,05,03,12,53,1011.14
2010,05,03,12,54,1011.38
2010,05,03,12,55,1011.38
2010,05,03,12,56,1011.35
2010,05,03,12,57,1011.45
2010,05,03,12,58,1011.48
2010,05,03,12,59,1011.58
2010,05,03,13,00,1011.62
2010,05,03,13,01,1011.68
2010,05,03,13,02,1011.62
2010,05,03,13,03,1011.72
2010,05,03,13,04,1011.68
2010,05,03,13,05,1011.68
2010,05,03,13,06,1011.68
2010,05,03,13,07,1011.72
2010,05,03,13,08,1011.72
2010,05,03,13,09,1011.79
2010,05,03,13,10,1011.75
2010,05,03,13,11,1011.79
2010,05,03,13,12,1011.68
2010,05,03,13,13,1011.72
2010,05,03,13,14,1011.75
2010,05,03,13,15,1011.72
2010,05,03,13,16,1011.72
2010,05,03,13,17,1011.85
2010,05,03,13,18,1011.89
2010,05,03,13,19,1011.85
2010,05,03,13,20,1011.82
2010,05,03,13,21,1011.82
2010,05,03,13,22,1011.82
2010,05,03,13,23,1011.82
2010,05,03,13,24,1011.85
2010,05,03,13,25,1011.99
2010,05,03,13,26,1011.95
2010,05,03,13,27,1012.05
2010,05,03,13,28,1012.06
2010,05,03,13,29,1012.19
2010,05,03,13,30,1012.23
2010,05,03,13,31,1012.09
2010,05,03,13,32,1012.16
2010,05,03,13,33,1012.29
2010,05,03,13,34,1012.29
2010,05,03,13,35,1012.29
2010,05,03,13,36,1012.29
2010,05,03,13,37,1012.29
2010,05,03,13,38,1012.29
2010,05,03,13,39,1012.36
2010,05,03,13,40,1012.33
2010,05,03,13,41,1012.33
2010,05,03,13,42,1012.29
2010,05,03,13,43,1012.36
2010,05,03,13,44,1012.46
2010,05,03,13,45,1012.46
2010,05,03,13,46,1012.50
2010,05,03,13,47,1012.50
2010,05,03,13,48,1012.50
2010,05,03,13,49,1012.56
2010,05,03,13,50,1012.63
2010,05,03,13,51,1012.73
2010,05,03,13,52,1012.67
2010,05,03,13,53,1012.63
2010,05,03,13,54,1012.77
2010,05,03,13,55,1012.77
2010,05,03,13,56,1012.77
2010,05,03,13,57,1012.80
2010,05,03,13,58,1012.80
2010,05,03,13,59,1012.84
2010,05,03,14,00,1012.84
2010,05,03,14,01,1012.97
2010,05,03,14,02,1012.94
2010,05,03,14,03,1012.90
2010,05,03,14,04,1012.97
2010,05,03,14,05,1013.00
2010,05,03,14,06,1013.07
2010,05,03,14,07,1013.04
2010,05,03,14,08,1013.04
2010,05,03,14,09,1013.07
2010,05,03,14,10,1013.04
2010,05,03,14,11,1013.04
2010,05,03,14,12,1013.07
2010,05,03,14,13,1013.04
2010,05,03,14,14,1013.04
2010,05,03,14,15,1013.07
2010,05,03,14,16,1013.07
2010,05,03,14,17,1013.07
2010,05,03,14,18,1013.04
2010,05,03,14,19,1013.04
2010,05,03,14,20,1013.07
2010,05,03,14,21,1013.11
2010,05,03,14,22,1013.14
2010,05,03,14,23,1013.14
2010,05,03,14,24,1013.11
2010,05,03,14,25,1013.21
2010,05,03,14,26,1013.17
2010,05,03,14,27,1013.14
2010,05,03,14,28,1013.24
2010,05,03,14,29,1013.24
2010,05,03,14,30,1013.17
2010,05,03,14,31,1013.24
2010,05,03,14,32,1013.28
2010,05,03,14,33,1013.24
2010,05,03,14,34,1013.28
2010,05,03,14,35,1013.28
2010,05,03,14,36,1013.28
2010,05,03,14,37,1013.31
2010,05,03,14,38,1013.31
2010,05,03,14,39,1013.41
2010,05,03,14,40,1013.34
2010,05,03,14,41,1013.31
2010,05,03,14,42,1013.44
2010,05,03,14,43,1013.38
2010,05,03,14,44,1013.41
2010,05,03,14,45,1013.58
2010,05,03,14,46,1013.48
2010,05,03,14,47,1013.55
2010,05,03,14,48,1013.58
2010,05,03,14,49,1013.55
2010,05,03,14,50,1013.65
2010,05,03,14,51,1013.55
2010,05,03,14,52,1013.61
2010,05,03,14,53,1013.68
2010,05,03,14,54,1013.65
2010,05,03,14,55,1013.65
2010,05,03,14,56,1013.65
2010,05,03,14,57,1013.68
2010,05,03,14,58,1013.65
2010,05,03,14,59,1013.65
2010,05,03,15,00,1013.55
2010,05,03,15,01,1013.65
2010,05,03,15,02,1013.68
2010,05,03,15,03,1013.68
2010,05,03,15,04,1013.65
2010,05,03,15,05,1013.68
2010,05,03,15,06,1013.61
2010,05,03,15,07,1013.65
2010,05,03,15,08,1013.72
2010,05,03,15,09,1013.75
2010,05,03,15,10,1013.72
2010,05,03,15,11,1013.72
2010,05,03,15,12,1013.72
2010,05,03,15,13,1013.78
2010,05,03,15,14,1013.72
2010,05,03,15,15,1013.75
2010,05,03,15,16,1013.72
2010,05,03,15,17,1013.68
2010,05,03,15,18,1013.75
2010,05,03,15,19,1013.84
2010,05,03,15,20,1013.92
2010,05,03,15,21,1013.89
2010,05,03,15,22,1013.99
2010,05,03,15,23,1013.95
2010,05,03,15,24,1013.99
2010,05,03,15,25,1013.92
2010,05,03,15,26,1013.99
2010,05,03,15,27,1014.05
2010,05,03,15,28,1014.12
2010,05,03,15,29,1014.16
2010,05,03,15,30,1014.16
2010,05,03,15,31,1014.16
2010,05,03,15,32,1014.16
2010,05,03,15,33,1014.12
2010,05,03,15,34,1014.19
2010,05,03,15,35,1014.19
2010,05,03,15,36,1014.19
2010,05,03,15,37,1014.19
2010,05,03,15,38,1014.22
2010,05,03,15,39,1014.26
2010,05,03,15,40,1014.29
2010,05,03,15,41,1014.43
2010,05,03,15,42,1014.36
2010,05,03,15,43,1014.36
2010,05,03,15,44,1014.29
2010,05,03,15,45,1014.46
2010,05,03,15,46,1014.53
2010,05,03,15,47,1014.53
2010,05,03,15,48,1014.49
2010,05,03,15,49,1014.53
2010,05,03,15,50,1014.60
2010,05,03,15,51,1014.56
2010,05,03,15,52,1014.60
2010,05,03,15,53,1014.56
2010,05,03,15,54,1014.60
2010,05,03,15,55,1014.60
2010,05,03,15,56,1014.60
2010,05,03,15,57,1014.63
2010,05,03,15,58,1014.63
2010,05,03,15,59,1014.66
2010,05,03,16,00,1014.77
2010,05,03,16,01,1014.70
2010,05,03,16,02,1014.66
2010,05,03,16,03,1014.70
2010,05,03,16,04,1014.66
2010,05,03,16,05,1014.70
2010,05,03,16,06,1014.80